Weather History for KTXK - August, 2013

Change the Weather History Date:

Wednesday, August 7, 2013

  Actual Average Record
Temperature  
Mean Temperature 89 °F 83 °F  
Max Temperature 99 °F 94 °F 107 °F (2011)
Min Temperature 78 °F 72 °F 60 °F (2004)
Degree Days  
Heating Degree Days 0 0  
Month to date heating degree days 0 0  
Since 1 June heating degree days 0 0  
Since 1 July heating degree days 0 0  
Cooling Degree Days 24 18  
Month to date cooling degree days 152 126  
Year to date cooling degree days 1399 1386  
Since 1 June cooling degree days 1101 1066  
Growing Degree Days 38 (Base 50)    
Moisture  
Dew Point 70 °F    
Average Humidity 57    
Maximum Humidity 79    
Minimum Humidity 35    
Precipitation  
Precipitation 0.00 in 0.10 in 1.14 in (1989)
Month to date precipitation 0.00 0.67  
Year to date precipitation 19.31 29.18  
Snow  
Snow 0.00 in - - ()
Month to date snowfall 0.0  
Since 1 June snowfall 0.0  
Since 1 July snowfall 0.0  
Snow Depth 0.00 in    
Sea Level Pressure  
Sea Level Pressure 29.86 in    
Wind  
Wind Speed 7 mph (South)    
Max Wind Speed 13 mph    
Max Gust Speed 18 mph    
Visibility 10 miles    
Events      
T = Trace of Precipitation, MM = Missing Value Source: NWS Daily Summary

Daily Weather History Graph

Daily Weather History Graph

Search for Another Location

Airport or City:

Trip Planner

Search our weather history database for the weather conditions in past years. The results will help you decide how hot, cold, wet, or windy it might be!

Date:

Astronomy

Aug. 07, 2013 Rise Set
Actual Time 6:32 AM CDT 8:09 PM CDT
Civil Twilight 6:06 AM CDT 8:36 PM CDT
Nautical Twilight 5:33 AM CDT 9:08 PM CDT
Astronomical Twilight 5:00 AM CDT 9:42 PM CDT
Moon 7:16 AM CDT (8/7) 8:24 PM CDT (8/7)
Length of Visible Light 14h 30m
Length of Day
13h 37m
New Moon, 1% of the Moon is Illuminated
Aug 7
New Moon
Aug 14
First Quarter
Aug 20
Full
Aug 28
Last Quarter
Sep 5
New

Hourly Weather History & Observations

Time (CDT) Temp. Heat Index Dew Point Humidity Pressure Visibility Wind Dir Wind Speed Gust Speed Precip Events Conditions
12:53 AM 84.0 °F 87.0 °F 68.0 °F 58% 29.87 in 10.0 mi SSE 8.1 mph - N/A   Clear
1:53 AM 82.9 °F 85.8 °F 68.0 °F 60% 29.87 in 10.0 mi South 9.2 mph - N/A   Clear
2:53 AM 82.0 °F 85.5 °F 69.1 °F 65% 29.86 in 10.0 mi SSW 6.9 mph - N/A   Clear
3:53 AM 80.1 °F 82.9 °F 69.1 °F 69% 29.85 in 10.0 mi South 9.2 mph - N/A   Clear
4:53 AM 80.1 °F 83.2 °F 70.0 °F 71% 29.84 in 10.0 mi SSW 8.1 mph - N/A   Clear
5:53 AM 79.0 °F - 71.1 °F 77% 29.85 in 10.0 mi SSW 9.2 mph - N/A   Clear
6:53 AM 78.1 °F - 71.1 °F 79% 29.88 in 9.0 mi SSW 6.9 mph - N/A   Clear
7:53 AM 81.0 °F 84.9 °F 71.1 °F 72% 29.88 in 9.0 mi SSW 12.7 mph - N/A   Clear
8:53 AM 82.9 °F 87.0 °F 70.0 °F 65% 29.92 in 9.0 mi SW 8.1 mph - N/A   Clear
9:53 AM 87.1 °F 92.0 °F 70.0 °F 57% 29.92 in 8.0 mi WSW 6.9 mph - N/A   Clear
10:53 AM 88.0 °F 92.9 °F 70.0 °F 55% 29.92 in 10.0 mi SSW 5.8 mph - N/A   Clear
11:53 AM 91.0 °F 95.6 °F 69.1 °F 48% 29.91 in 10.0 mi SW 9.2 mph - N/A   Clear
12:53 PM 93.0 °F 97.9 °F 69.1 °F 45% 29.90 in 10.0 mi West 5.8 mph - N/A   Clear
1:53 PM 96.1 °F 101.6 °F 69.1 °F 41% 29.88 in 10.0 mi SW 8.1 mph - N/A   Clear
2:53 PM 97.0 °F 101.0 °F 66.9 °F 37% 29.86 in 10.0 mi Calm Calm - N/A   Clear
3:53 PM 99.0 °F 104.2 °F 68.0 °F 36% 29.84 in 10.0 mi Variable 4.6 mph - N/A   Clear
4:53 PM 98.1 °F 103.0 °F 68.0 °F 37% 29.82 in 10.0 mi SE 10.4 mph 18.4 mph N/A   Clear
5:53 PM 98.1 °F 102.4 °F 66.9 °F 36% 29.82 in 10.0 mi SSE 10.4 mph - N/A   Clear
6:53 PM 95.0 °F 102.5 °F 71.1 °F 46% 29.81 in 9.0 mi ESE 6.9 mph - N/A   Clear
7:53 PM 91.0 °F 98.2 °F 72.0 °F 53% 29.81 in 9.0 mi SE 6.9 mph - N/A   Clear
8:53 PM 88.0 °F 94.7 °F 72.0 °F 59% 29.81 in 9.0 mi ESE 5.8 mph - N/A   Clear
9:53 PM 87.1 °F 92.8 °F 71.1 °F 59% 29.84 in 9.0 mi SE 5.8 mph - N/A   Clear
10:53 PM 84.9 °F 90.1 °F 71.1 °F 63% 29.86 in 9.0 mi SE 6.9 mph - N/A   Clear
11:53 PM 84.9 °F 90.1 °F 71.1 °F 63% 29.86 in 9.0 mi SE 5.8 mph - N/A   Clear